Weather History for MKJP - January, 2011

Change the Weather History Date:

Thursday, January 6, 2011

  Actual Average Record
Temperature  
Mean Temperature 78 °F -  
Max Temperature 86 °F 84 °F 93 °F (2007)
Min Temperature 70 °F 74 °F 71 °F (2011)
Cooling Degree Days 13    
Growing Degree Days 28 (Base 50)    
Moisture  
Dew Point 63 °F    
Average Humidity 60    
Maximum Humidity 73    
Minimum Humidity 41    
Precipitation  
Precipitation 0.00 in - - ()
Sea Level Pressure  
Sea Level Pressure 29.90 in    
Wind  
Wind Speed 5 mph ()    
Max Wind Speed 44 mph    
Max Gust Speed -    
Visibility 8.4 miles    
Events      
Averages and records for this station are not official NWS values.
T = Trace of Precipitation, MM = Missing Value Source: Averaged Metar Reports

Daily Weather History Graph

Daily Weather History Graph

Search for Another Location

Airport or City:

Trip Planner

Search our weather history database for the weather conditions in past years. The results will help you decide how hot, cold, wet, or windy it might be!

Date:

Astronomy

Jan. 06, 2011 Rise Set
Actual Time 6:39 AM EST 5:46 PM EST
Civil Twilight 6:16 AM EST 6:09 PM EST
Nautical Twilight 5:49 AM EST 6:36 PM EST
Astronomical Twilight 5:22 AM EST 7:03 PM EST
Moon 8:13 AM EST (1/6) 7:58 PM EST (1/6)
Length of Visible Light 11h 53m
Length of Day
11h 06m
Waxing Crescent, 5% of the Moon is Illuminated
Jan 6
Waxing Crescent
Jan 12
First Quarter
Jan 19
Full
Jan 26
Last Quarter
Feb 2
New

Hourly Weather History & Observations

Time (EST) Temp. Heat Index Dew Point Humidity Pressure Visibility Wind Dir Wind Speed Gust Speed Precip Events Conditions
12:00 AM 73.4 °F - 60.8 °F 65% 29.92 in 6.2 mi NNW 2.3 mph - N/A   Partly Cloudy
1:00 AM 72 °F - 61 °F 59% 29.94 in 14 mi West 3.5 mph - -   Haze
1:00 AM 71.6 °F - 60.8 °F 69% 29.92 in 6.2 mi West 3.5 mph - N/A   Partly Cloudy
2:00 AM 73.4 °F - 60.8 °F 65% 29.92 in 6.2 mi North 3.5 mph - N/A   Partly Cloudy
3:00 AM 71.6 °F - 60.8 °F 69% 29.89 in 6.2 mi NNE 3.5 mph - N/A   Partly Cloudy
4:00 AM 73 °F - 60 °F 54% 29.91 in 14 mi NNW 5.8 mph - -   Haze
4:00 AM 73.4 °F - 60.8 °F 65% 29.89 in 6.2 mi NNW 5.8 mph - N/A   Partly Cloudy
5:00 AM 73.4 °F - 59.0 °F 61% 29.92 in 6.2 mi North 5.8 mph - N/A   Partly Cloudy
6:00 AM 73.4 °F - 60.8 °F 65% 29.92 in 6.2 mi NNE 2.3 mph - N/A   Partly Cloudy
7:00 AM 72 °F - 62 °F 62% 29.93 in 17 mi NNW 3.5 mph - -   Haze
7:00 AM 71.6 °F - 62.6 °F 73% 29.92 in 6.2 mi NNW 3.5 mph - N/A   Partly Cloudy
8:00 AM 73.4 °F - 59.0 °F 61% 29.95 in 6.2 mi North 4.6 mph - N/A   Partly Cloudy
9:00 AM 75.2 °F - 60.8 °F 61% 29.95 in 6.2 mi North 6.9 mph - N/A   Partly Cloudy
10:00 AM 78 °F - 62 °F 48% 29.94 in 17 mi WNW 4.6 mph - -   Haze
10:00 AM 78.8 °F - 62.6 °F 57% 29.92 in 6.2 mi WNW 4.6 mph - N/A   Partly Cloudy
11:00 AM 80.6 °F 80.8 °F 57.2 °F 45% 29.92 in 6.2 mi SSW 5.8 mph - N/A   Partly Cloudy
12:00 PM 80.6 °F 81.1 °F 59.0 °F 48% 29.89 in 6.2 mi South 6.9 mph - N/A   Partly Cloudy
1:00 PM 81 °F - 61 °F 41% 29.87 in 17 mi South 9.2 mph - -   Haze
1:00 PM 80.6 °F 81.5 °F 60.8 °F 51% 29.86 in 6.2 mi South 9.2 mph - N/A   Partly Cloudy
2:00 PM 80.6 °F 82.3 °F 64.4 °F 58% 29.83 in 6.2 mi SSE 8.1 mph - N/A   Partly Cloudy
3:00 PM 80.6 °F 81.8 °F 62.6 °F 54% 29.83 in 6.2 mi South 10.4 mph - N/A   Partly Cloudy
4:00 PM - - 80 °F %  in 16 mi SSE 8.1 mph - -  
4:00 PM 80.6 °F 82.3 °F 64.4 °F 58% 29.83 in 6.2 mi SSE 8.1 mph - N/A   Partly Cloudy
5:00 PM 78.8 °F - 64.4 °F 61% 29.83 in 6.2 mi SSE 6.9 mph - N/A   Partly Cloudy
6:00 PM 77.0 °F - 64.4 °F 65% 29.86 in 6.2 mi SSE 6.9 mph - N/A   Partly Cloudy
7:00 PM 78 °F - 64 °F 53% 29.89 in 12 mi SSE 4.6 mph - -   Haze
7:00 PM 77.0 °F - 64.4 °F 65% 29.89 in 6.2 mi SSE 4.6 mph - N/A   Mostly Cloudy
8:00 PM 77.0 °F - 64.4 °F 65% 29.89 in 6.2 mi SSE 3.5 mph - N/A   Partly Cloudy
9:00 PM 75.2 °F - 64.4 °F 69% 29.89 in 6.2 mi SSE 3.5 mph - N/A   Partly Cloudy
10:00 PM - - 66 °F % 29.91 in 12 mi NNE 43.7 mph - -   Haze
10:00 PM 75.2 °F - 66.2 °F 73% 29.89 in 6.2 mi NW 5.8 mph - N/A   Partly Cloudy
11:00 PM 75.2 °F - 66.2 °F 73% 29.89 in 6.2 mi NW 5.8 mph - N/A   Partly Cloudy